Погода в Нальчике

Погода в Нальчике : погода сейчас, прогноз погоды и архив. Всё, что Вы хотите узнать о погоде в Нальчике!

Поиск расширенной информации на нашем сайте:

Другие новости

Новости СМИ2

Главная страница сайта

Новости сайта

02.10.2013

Напоминаем, что на нашем новом сайте вы можете получить высокодетализированные прогнозы погоды по пунктам России, СНГ и мира (включающие важные для авиации метеовеличины, такие как направление и скорость ветра, видимость, явления погоды, количество и форма облачности, нижняя и верхняя граница облачности), а также ознакомиться с разнообразными материалами по авиационной метеорологии и подборкой полезных ссылок на эту тему.

Сайт Метеоцентр.Азия посвящён разработке технологий оптимизации авиаметеорологического обслуживания, включая проектирование и перспективное создание нескольких автоматизированных авиаметеорологических систем:
- система выпуска высокодетальных прогностических карт явлений погоды для нижнего воздушного пространства по России и ближнему зарубежью;
- система верификации прогнозов TAF (выпускаемых синоптиками официальных АМСГ РФ и ближнего зарубежья) и AUTOTAF (выпускаемых сайтом Метеоцентр.Азия) - выявление ошибок, онлайн-сопоставление с фактической погодой METAR, автоматическое внесение коррективов в прогнозы при резком отклонении фактической погоды от прогноза, подсчёт оправдываемости прогнозов по элементам и в целом;
- система обработки, анализа и отображения авиаметеорологической информации для применения провайдерами метеорологической информации.


Погода в Нальчике - сегодня

Время (UTC), дата Ветер
(°,м/с) 
Видим.   Явления Облачность Т
(°С)
Тd
(°С)
f(%) Тe
(°С)
Pmin
(гПа)
dP
(гПа)
Po
(мм)
O2
(г/м3)
Тmin Tmax R s Состояние
почвы
09 26.04.17 080 (В) 4{10}  20000 м    ясно 
+13.7 +0.2 40 +13  1030  -1.1  735  282           
12 26.04.17 110 (В) 20000 м    ясно 
+16.2 -2.1 28 +17  1028  -1.5  733  279           
15 26.04.17 060 (СВ) 20000 м    ясно 
+14.3 -2.1 32 +14  1027.6  -0.7  733  281    +16.5       
18 26.04.17 100 (В) 10 км    ясно 
+9.2 +0.5 54 +10  1029.7  1.2  734  286           
21 26.04.17 290 (З) 10 км    ясно 
+3.9 +0 76 +3  1029.6  -1  733  291           
00 27.04.17 300 (СЗ) 10 км    ясно 
+1 -0.4 90 +2  1028.6  -1.5  732  294           
03 27.04.17 тихо ()   20000 м    ясно 
+2.7 -0.1 82 +3  1028  -0.3  732  292  +0.7        сухая 
06 27.04.17 010 (С) 20000 м    ясно 
+7.8 +2.2 68 +8  1027  732  286           
09 27.04.17 040 (СВ) 20000 м    ясно 
+12.5 +4.2 57 +13  1025.4  -0.7  731  281           
12 27.04.17 130 (ЮВ) 20000 м    ясно 
+16.3 +2.1 38 +17  1022.7  -1.9  730  277           
15 27.04.17 040 (СВ) 20000 м    ясно 
+16.7 +4.1 43 +18  1021.2  -1.3  729  276    +17.5       
18 27.04.17 230 (ЮЗ) 10 км    ясно 
+11.6 +4.2 60 +12  1022.4  0.3  729  281           
21 27.04.17 220 (ЮЗ) 10 км    ясно 
+8.3 +3.8 73 +8  1022.8  -0.2  729  284           
00 28.04.17 260 (З) 10 км    ясно 
+5.5 +2.5 81 +6  1021.9  -1.4  728  287           
03 28.04.17 150 (ЮВ) 20000 м    ясно 
+6.6 +4 83 +8  1021.1  -0.5  727  285  +3.7        сухая 
06 28.04.17 040 (СВ) 20000 м    ясно 
+13.9 +5.6 57 +15  1020.4  0.5  728  278           
09 28.04.17 020 (С) 20000 м    3/0 верхняя 
[Ci fib]
+20.9 +3.6 32 +21  1018.1  -1  727  272           
12 28.04.17 070 (В) 20000 м    8/0 верхняя 
[Ci fib]
+22.6 +2.8 27 +23  1017.1  -0.7  727  270           
15 28.04.17 080 (В) 20000 м    3/0 верхняя 
[Ci fib]
+20.7 +3.4 32 +21  1017.5  0.1  727  272    +22.8       
18 28.04.17 220 (ЮЗ) 10 км    ясно 
+14.9 +6.1 56 +16  1019.1  0.6  727  277           
21 28.04.17 240 (ЮЗ) 10 км    ясно 
+10.7 +5.3 69 +10  1019.4  -0.4  727  281           
00 29.04.17 330 (СЗ) 10 км    ясно 
+8.1 +4.1 76 +9  1019.5  -0.3  726  284           
03 29.04.17 220 (ЮЗ) 20000 м    3/0 верхняя 
[Ci fib]
+11.6 +5 64 +13  1019.2  0.3  727  280  +7.9        влажная 
06 29.04.17 100 (В) 20000 м    3/0 верхняя 
[Ci fib]
+19.5 +5.2 39 +21  1018  0.1  727  272           
09 29.04.17 080 (В) 20000 м    10/0 верхняя 
[Ci fib]
+22.6 +4.6 31 +23  1016.3  -1.1  726  269           
Время (UTC), дата Ветер
(°,м/с) 
Видим.   Явления Облачность Т
(°С)
Тd
(°С)
f(%) Тe
(°С)
Pmin
(гПа)
dP
(гПа)
Po
(мм)
O2
(г/м3)
Тmin Tmax R s Состояние
почвы

Для получения пояснительной информации подведите курсор к названию столбца.

ПОГОДА в Нальчике - архив

Всё, что Вы хотите узнать о погоде в Нальчике - удобно и подробно!

Выберите нужную дату (начиная с 1 января 2015* года) и нажмите кнопку "Найти".
Будут отображены архивные сводки погоды по пункту Нальчик, начиная с указанной даты.


Отображать данные в формате CSV (для использования в таблицах Excel)


Внимание! Наш архив погоды предназначен исключительно для личного некоммерческого использования в познавательных целях. Если Вам необходимы официальные справки о состоянии погоды (для производственных, юридических, коммерческих и т.п. целей), обращайтесь в органы Росгидромета.

*Примечание: данная дата относится к архиву по метеостанциям СССР (Россия, СНГ, Балтия).
Архив по метеостанциям Зарубежной Европы и Азии (кроме Китая) хранится 10 дней, по другим регионам земного шара (Китай, Африка, Америка, Австралия, Океания) - 1 день.

Нальчик - район местоположения метеостанции


Название, широта, долгота, высота метеостанции:
Нальчик 43.5°ш. 43.7°д. 432 м над ур. моря [Российская Федерация]

Дополнительная информация

В oтличие oт бoльшинства пoгoдных сайтoв мы публикуем пoдрoбную метеoинфoрмацию в детальнoм прoфессиoнальнoм фoрмате.

Характеристики температуры и влажнoсти вoздуха измеряются на высoте 2 м в тени вдали oт зданий и деревьев.
Скoрoсть ветра измеряется на высoте 10 м (на урoвне рoста челoвека скoрoсть ветра ниже в 1.5-2 раза). Если метеoстанция нахoдится в гoрoде или в лесу, тo скoрoсть ветра занижена на 2-4 м/с пo сравнению с oткрытым местoм. Скoрoсть ветра над акватoриями крупных рек и oзёр, а также на вершинах хoлмoв на 2-5 м/с выше, чем в oбычных услoвиях.
Атмoсфернoе давление в разных тoчках местнoсти мoжет значительнo oтличаться oт давления на метеoстанции, в зависимoсти oт услoвий рельефа (при пoдъёме на 10 м давление пoнижается примернo на 1 мм рт.ст.).